User: anonymous   Login
Location: Vancouver
(49.2500°N, 123.1330°W)
Time: 10:02:18
(UTC-08:00)
Language:

Transit 2A Rocket - Orbit

View from above orbital plane
View from above orbital plane
View from above satellite
View from above satellite

Ground track
Ground track

The orbit data is extracted from the following two-line orbital elements,

1 00047U 60007C   17057.73591262  .00000002  00000-0  25580-4 0  9995
2 00047  66.6662 141.1515 0220747 106.5349 256.0129 14.41897582961148
Epoch (UTC): 26 February 2017 17:39:42
Eccentricity: 0.0220747
inclination: 66.6662°
perigee height: 595 km
apogee height: 909 km
right ascension of ascending node: 141.1515°
argument of perigee: 106.5349°
revolutions per day: 14.41897582
mean anomaly at epoch: 256.0129°
orbit number at epoch: 96114

The dashed part of the orbit path shows where the satellite is in the earth's shadow,  

DLR